SHIYAN-29 (65486 NORAD) Tracking and Keplerian Element Data

This shows tracking and keplerian element data for the satellite.

Feedback or suggestion? Click here.




ElementValue
Catalog65486
NameSHIYAN-29
Epoch Orbit108
Epoch Day353.68396825
Epoch Year2025
RAAN20.7964
Inclination28.6254
Eccentricity0.0011
Argument of Perigee186.4644
Mean Anonmoly222.4457
Mean Motion1.00282144
Decay Rate-2.64E-06
L11 65486U 25196A 25353.68396825 -.00000264 00000+0 00000+0 0 9998
L22 65486 28.6254 20.7964 0011000 186.4644 222.4457 1.00282144 1088



Live tracking and technical data element details for SHIYAN-29 (NORAD 65486). SHIYAN-29 can be tracked NOW for your location showing map with azimuth and elevation plus other details from your city location.







IsCatalogInMostPopularTable: catalog: 65486, numindb: 4
Update: records affected: 1



GetName: 65486 SHIYAN-29

Hit Count: updated at: Sat, 11 Apr 2026 21:24:18 GMT